DW4993 Weather Reports


time (UTC)temp
C
wind
direction
speed
KPH
gust
KPH
rain 1hr
cm
rain 24hr
cm
rain mn
cm
humidity
%
barometer
mb
20260503034304 15 190 4.8 9.7 0.00 0.00 0.00 45 1009.2
20260503032305 16 209 1.6 4.8 0.00 0.00 0.00 43 1009.1
20260503031805 16 196 4.8 11.3 0.00 0.00 0.00 42 1009.0
20260503031306 16 203 1.6 4.8 0.00 0.00 0.00 42 1009.0
20260503030805 16 197 3.2 14.5 0.00 0.00 0.00 41 1009.0
20260503025805 16 200 4.8 9.7 0.00 0.00 0.00 40 1008.8
20260503025305 16 209 3.2 9.7 0.00 0.00 0.00 40 1008.8
20260503024805 17 201 1.6 8.0 0.00 0.00 0.00 39 1008.8
20260503024304 17 193 3.2 9.7 0.00 0.00 0.00 39 1008.8
20260503023805 17 215 4.8 12.9 0.00 0.00 0.00 38 1008.8
20260503023305 17 211 4.8 11.3 0.00 0.00 0.00 37 1008.8
20260503022805 17 214 4.8 11.3 0.00 0.00 0.00 37 1008.7
20260503022305 18 193 6.4 11.3 0.00 0.00 0.00 36 1008.7
20260503021305 18 203 3.2 14.5 0.00 0.00 0.00 35 1008.8
20260503020805 18 208 4.8 12.9 0.00 0.00 0.00 35 1008.8
20260503020304 18 203 6.4 14.5 0.00 0.00 0.00 34 1008.8
20260503015305 19 197 3.2 12.9 0.00 0.00 0.00 33 1008.9
20260503014305 20 204 6.4 12.9 0.00 0.00 0.00 31 1009.0
20260503013806 20 192 4.8 12.9 0.00 0.00 0.00 31 1009.0
20260503013305 20 202 4.8 11.3 0.00 0.00 0.00 30 1009.1
20260503012804 20 194 6.4 16.1 0.00 0.00 0.00 30 1009.1
20260503012306 21 201 8.0 12.9 0.00 0.00 0.00 30 1009.3
20260503011305 21 204 4.8 12.9 0.00 0.00 0.00 29 1009.3
20260503010805 21 193 4.8 11.3 0.00 0.00 0.00 29 1009.3
20260503010306 21 234 4.8 14.5 0.00 0.00 0.00 29 1009.3
20260503005305 21 247 4.8 11.3 0.00 0.00 0.00 28 1009.4
20260503004305 21 233 3.2 11.3 0.00 0.00 0.00 29 1009.6
20260503003804 21 226 3.2 4.8 0.00 0.00 0.00 29 1009.6
20260503003304 21 214 4.8 16.1 0.00 0.00 0.00 29 1009.7
20260503002806 21 221 4.8 16.1 0.00 0.00 0.00 29 1009.7
20260503002305 21 192 4.8 12.9 0.00 0.00 0.00 29 1009.7
20260503001305 21 235 4.8 11.3 0.00 0.00 0.00 29 1009.9
20260503000806 21 247 4.8 11.3 0.00 0.00 0.00 29 1009.9
20260503000305 21 200 8.0 14.5 0.00 0.00 0.00 30 1010.0
20260502235804 21 173 4.8 12.9 0.00 0.00 0.00 29 1010.1
20260502235305 21 219 3.2 4.8 0.00 0.00 0.00 30 1010.1
20260502234806 21 212 4.8 14.5 0.00 0.00 0.00 29 1010.1
20260502233305 21 219 1.6 8.0 0.00 0.00 0.00 30 1010.2
20260502232805 21 238 4.8 12.9 0.00 0.00 0.00 30 1010.4
20260502232305 21 235 9.7 16.1 0.00 0.00 0.00 29 1010.5
20260502231805 21 234 1.6 9.7 0.00 0.00 0.00 30 1010.5
20260502231304 21 213 6.4 12.9 0.00 0.00 0.00 29 1010.7
20260502230806 21 204 4.8 9.7 0.00 0.00 0.00 29 1010.7
20260502230304 21 186 3.2 11.3 0.00 0.00 0.00 30 1010.8
20260502225805 21 187 4.8 11.3 0.00 0.00 0.00 30 1010.9
20260502225305 21 236 4.8 9.7 0.00 0.00 0.00 31 1010.9
20260502224805 20 189 3.2 8.0 0.00 0.00 0.00 31 1011.0
20260502223804 20 230 9.7 16.1 0.00 0.00 0.00 30 1011.2
20260502223305 20 132 3.2 11.3 0.00 0.00 0.00 31 1011.3
20260502222805 20 242 3.2 9.7 0.00 0.00 0.00 32 1011.4
20260502222305 20 239 4.8 16.1 0.00 0.00 0.00 30 1011.4
20260502221304 20 219 3.2 9.7 0.00 0.00 0.00 32 1011.7
20260502220804 20 205 3.2 11.3 0.00 0.00 0.00 32 1011.7
20260502220305 20 239 4.8 8.0 0.00 0.00 0.00 33 1011.9
20260502215806 19 220 4.8 11.3 0.00 0.00 0.00 32 1012.0
20260502215305 20 236 11.3 19.3 0.00 0.00 0.00 31 1012.1
20260502214805 20 232 4.8 12.9 0.00 0.00 0.00 32 1012.1
20260502214305 20 234 3.2 4.8 0.00 0.00 0.00 31 1012.1
20260502213805 20 205 3.2 4.8 0.00 0.00 0.00 33 1012.2
20260502213305 19 196 4.8 12.9 0.00 0.00 0.00 33 1012.3
20260502212804 19 278 1.6 4.8 0.00 0.00 0.00 33 1012.3
20260502212305 19 242 4.8 16.1 0.00 0.00 0.00 33 1012.5
20260502211805 19 197 4.8 19.3 0.00 0.00 0.00 34 1012.4
20260502210305 19 213 3.2 14.5 0.00 0.00 0.00 34 1012.8
20260502205805 18 218 3.2 8.0 0.00 0.00 0.00 33 1012.9
20260502204804 18 273 9.7 14.5 0.00 0.00 0.00 34 1013.1
20260502204304 18 149 3.2 8.0 0.00 0.00 0.00 35 1013.1
20260502203806 18 200 1.6 4.8 0.00 0.00 0.00 34 1013.2
20260502202804 18 236 6.4 11.3 0.00 0.00 0.00 34 1013.4
20260502202305 18 196 1.6 11.3 0.00 0.00 0.00 34 1013.4
20260502201805 18 209 6.4 14.5 0.00 0.00 0.00 34 1013.6
20260502201305 18 240 3.2 14.5 0.00 0.00 0.00 35 1013.6
20260502200805 18 152 1.6 4.8 0.00 0.00 0.00 37 1013.7
20260502200305 17 259 1.6 12.9 0.00 0.00 0.00 37 1013.8
20260502193805 17 105 3.2 8.0 0.00 0.00 0.00 37 1014.2
20260502193305 17 97 4.8 11.3 0.00 0.00 0.00 37 1014.3
20260502192805 17 130 4.8 12.9 0.00 0.00 0.00 38 1014.4
20260502192305 17 208 3.2 9.7 0.00 0.00 0.00 37 1014.4
20260502191806 17 217 3.2 12.9 0.00 0.00 0.00 38 1014.5
20260502191304 17 195 3.2 11.3 0.00 0.00 0.00 38 1014.7
20260502190804 17 210 8.0 16.1 0.00 0.00 0.00 37 1014.7
20260502190305 17 221 4.8 9.7 0.00 0.00 0.00 39 1014.7
20260502185805 17 204 4.8 9.7 0.00 0.00 0.00 39 1014.8
20260502185305 17 218 3.2 9.7 0.00 0.00 0.00 40 1014.8
20260502184804 17 199 4.8 11.3 0.00 0.00 0.00 40 1014.8
20260502184305 16 196 3.2 8.0 0.00 0.00 0.00 40 1014.9
20260502183805 16 192 4.8 14.5 0.00 0.00 0.00 40 1015.0
20260502182805 16 216 4.8 9.7 0.00 0.00 0.00 39 1015.1
20260502182306 16 197 6.4 12.9 0.00 0.00 0.00 40 1015.2
20260502181805 16 220 3.2 9.7 0.00 0.00 0.00 41 1015.2
20260502181304 16 244 3.2 11.3 0.00 0.00 0.00 40 1015.3
20260502180805 16 202 1.6 3.2 0.00 0.00 0.00 41 1015.3
20260502180306 16 191 3.2 11.3 0.00 0.00 0.00 41 1015.4
20260502170304 15 217 3.2 4.8 0.00 0.00 0.00 42 1015.9
20260502164304 15 208 3.2 8.0 0.00 0.00 0.00 44 1016.1
20260502163805 15 105 3.2 8.0 0.00 0.00 0.00 44 1016.1
20260502163305 14 117 1.6 4.8 0.00 0.00 0.00 47 1016.1
20260502162804 13 117 1.6 4.8 0.00 0.00 0.00 47 1016.2
20260502162305 13 109 3.2 4.8 0.00 0.00 0.00 50 1016.2
20260502161805 12 83 1.6 3.2 0.00 0.00 0.00 56 1016.3
20260502161305 12 82 1.6 3.2 0.00 0.00 0.00 54 1016.3
20260502160804 11 82 1.6 4.8 0.00 0.00 0.00 54 1016.4
20260502160304 11 85 1.6 4.8 0.00 0.00 0.00 55 1016.4
20260502152305 11 9 0.0 1.6 0.00 0.00 0.00 58 1016.6
20260502151805 10 9 1.6 3.2 0.00 0.00 0.00 60 1016.6
20260502151305 10 9 1.6 3.2 0.00 0.00 0.00 61 1016.6
20260502150804 10 9 1.6 3.2 0.00 0.00 0.00 62 1016.6
20260502150304 10 9 0.0 4.8 0.00 0.00 0.00 62 1016.6
20260502130304 8 23 0.0 0.0 0.00 0.00 0.00 69 1015.9
20260502123304 7 23 0.0 0.0 0.00 0.00 0.00 70 1015.9
20260502122804 7 23 0.0 3.2 0.00 0.00 0.00 70 1015.9
20260502121805 7 23 3.2 4.8 0.00 0.00 0.00 70 1016.0
20260502121304 7 23 1.6 4.8 0.00 0.00 0.00 70 1016.0
20260502120804 7 23 3.2 8.0 0.00 0.00 0.00 70 1016.0
20260502120305 7 12 3.2 4.8 0.00 0.00 0.00 70 1016.0
20260502115805 7 0 3.2 4.8 0.00 0.00 0.00 70 1015.9
20260502115306 8 356 1.6 4.8 0.00 0.00 0.00 70 1015.9
20260502114805 8 356 0.0 4.8 0.00 0.00 0.00 70 1015.9
20260502113805 8 358 3.2 4.8 0.00 0.00 0.00 70 1015.9
20260502113304 8 0 3.2 4.8 0.00 0.00 0.00 70 1015.9
20260502112804 8 0 1.6 4.8 0.00 0.00 0.00 70 1015.9
20260502112306 8 0 1.6 4.8 0.00 0.00 0.00 70 1016.0
20260502111806 8 0 0.0 3.2 0.00 0.00 0.00 70 1016.0
20260502110805 8 0 0.0 0.0 0.00 0.00 0.00 70 1015.9
20260502110304 8 0 0.0 0.0 0.00 0.00 0.00 70 1016.0
20260502105306 8 0 0.0 0.0 0.00 0.00 0.00 69 1016.0
20260502104805 8 0 0.0 0.0 0.00 0.00 0.00 69 1016.0
20260502103304 8 0 1.6 4.8 0.00 0.00 0.00 68 1016.0
20260502102806 8 0 3.2 4.8 0.00 0.00 0.00 68 1015.9
20260502102306 8 0 3.2 4.8 0.00 0.00 0.00 68 1015.9
20260502101804 8 2 3.2 4.8 0.00 0.00 0.00 68 1015.9
20260502100804 9 19 1.6 4.8 0.00 0.00 0.00 68 1015.8
20260502100304 9 19 1.6 4.8 0.00 0.00 0.00 67 1015.8
20260502091305 10 356 1.6 4.8 0.00 0.00 0.00 68 1015.7
20260502090805 10 356 1.6 3.2 0.00 0.00 0.00 67 1015.7
20260502090305 10 356 1.6 4.8 0.00 0.00 0.00 67 1015.7
20260502071305 10 357 1.6 3.2 0.00 0.00 0.00 63 1015.4
20260502070804 10 359 0.0 1.6 0.00 0.00 0.00 63 1015.4
20260502070305 10 359 0.0 0.0 0.00 0.00 0.00 63 1015.4
20260502065804 10 359 0.0 3.2 0.00 0.00 0.00 63 1015.4
20260502064805 10 359 1.6 4.8 0.00 0.00 0.00 63 1015.3
20260502064305 10 358 1.6 4.8 0.00 0.00 0.00 63 1015.3
20260502063804 10 358 4.8 8.0 0.00 0.00 0.00 62 1015.2
20260502063305 10 343 1.6 4.8 0.00 0.00 0.00 62 1015.2
20260502062804 10 341 1.6 4.8 0.00 0.00 0.00 62 1015.2
20260502062306 10 339 0.0 4.8 0.00 0.00 0.00 62 1015.2
20260502061805 10 337 1.6 4.8 0.00 0.00 0.00 62 1015.2
20260502061305 10 333 1.6 4.8 0.00 0.00 0.00 62 1015.3
20260502060818 10 310 0.0 4.8 0.00 0.00 0.00 61 1015.3
20260502060305 10 314 1.6 3.2 0.00 0.00 0.00 61 1015.3
20260502055804 10 315 1.6 4.8 0.00 0.00 0.00 61 1015.3
20260502055306 10 315 1.6 4.8 0.00 0.00 0.00 61 1015.3
20260502054804 10 320 3.2 4.8 0.00 0.00 0.00 61 1015.2
20260502054304 10 26 0.0 4.8 0.00 0.00 0.00 61 1015.2
20260502053305 10 27 1.6 4.8 0.00 0.00 0.00 60 1014.9
20260502052804 10 27 1.6 3.2 0.00 0.00 0.00 60 1014.9
20260502052306 10 27 1.6 4.8 0.00 0.00 0.00 60 1014.8
20260502050804 11 31 0.0 3.2 0.00 0.00 0.00 58 1014.7
20260502050304 11 31 3.2 11.3 0.00 0.00 0.00 58 1014.6
20260502045804 11 28 3.2 8.0 0.00 0.00 0.00 58 1014.6
20260502045306 11 33 3.2 9.7 0.00 0.00 0.00 57 1014.5
20260502044805 11 35 3.2 8.0 0.00 0.00 0.00 56 1014.4
20260502044305 11 36 4.8 12.9 0.00 0.00 0.00 56 1014.4
20260502043806 11 36 6.4 16.1 0.00 0.00 0.00 56 1014.4
20260502043304 11 39 3.2 14.5 0.00 0.00 0.00 55 1014.4
20260502042805 12 32 6.4 16.1 0.00 0.00 0.00 55 1014.3
20260502042306 12 45 8.0 14.5 0.00 0.00 0.00 55 1014.2
20260502041805 12 49 4.8 16.1 0.00 0.00 0.00 54 1014.2
20260502041305 12 37 6.4 16.1 0.00 0.00 0.00 54 1014.1
20260502040805 12 41 9.7 19.3 0.00 0.00 0.00 54 1014.1
20260502035306 12 46 9.7 19.3 0.00 0.00 0.00 53 1013.9
20260502034804 12 37 9.7 22.5 0.00 0.00 0.00 53 1013.9